Location: Vaughan
(31.9146°N, 97.1736°W)
Time: 02:19:23
(UTC+00:00)

SL-16 R/B - Pass Details

Date: 10 December 2025
Orbit: 984 x 1007 km, 99.8° (Epoch: 17 January)

Event Time Altitude Azimuth Distance (km) Brightness Sun altitude
Rises 10:10:02 0° 162° (SSE) 3,716 5.8 -39.1°
Reaches altitude 10° 10:12:30 10° 162° (SSE) 2,771 5.1 -38.6°
Enters shadow 10:14:03 19° 162° (SSE) 2,194 4.5 -38.2°
